Location: Summit Observatory
(39.5293°N, 75.7290°W)
Time: 06:20:50
(UTC-04:00)

Amateur Radio Satellites - All Passes

Search period start: 30 September 2014 05:50
Search period end: 01 October 2014 05:50
Location: Summit Observatory, 39.5293°N, 75.7290°W

Satellite Date Start Highest point End Downlink Frequencies (MHz)
Time Altitude Azimuth
OPAL 30 Sep 05:58:11 06:02:36 28° 262° (W) 06:07:03 ?
SO-50 30 Sep 05:59:46 06:03:36 24° 249° (WSW) 06:07:26 436.795 FM
MaSat-1 30 Sep 06:04:54 06:09:47 75° 113° (ESE) 06:14:29 437.345 MHz
RS-15 30 Sep 06:06:15 06:14:33 24° 335° (NNW) 06:22:56 29.354 - 29.394 USB, Beacon 29.352 USB
ISS 30 Sep 06:25:01 06:27:51 26° 227° (SW) 06:30:40 145.800 FM
UOSAT-12 30 Sep 06:33:07 06:37:52 74° 57° (ENE) 06:42:30 437.025 FM, 437.400 FM
Hamsat 30 Sep 06:46:21 06:50:32 62° 100° (E) 06:54:39 145.90 MHz
Uosat F 30 Sep 06:50:25 06:53:53 19° 296° (WNW) 06:57:21 435.120 FM
STRAND 1 30 Sep 06:57:05 07:02:09 76° 75° (ENE) 07:07:16 ?
JAS-2 30 Sep 07:03:44 07:10:25 84° 285° (WNW) 07:17:53 435.800 - 435.900 CW/SSB, 435.910 FM
AO-7 30 Sep 07:43:21 07:48:43 20° 308° (NW) 07:54:06 29.400 - 29.500 MHz
MaSat-1 30 Sep 07:44:03 07:46:44 15° 309° (NW) 07:49:20 437.345 MHz
SO-67 30 Sep 08:08:56 08:12:24 80° 102° (ESE) 08:15:50 435.3500 MHz FM
UOSAT-12 30 Sep 08:15:42 08:17:21 12° 253° (WSW) 08:18:59 437.025 FM, 437.400 FM
Hamsat 30 Sep 08:24:40 08:25:56 11° 297° (WNW) 08:27:12 145.90 MHz
RS-15 30 Sep 08:25:29 08:32:38 19° 12° (NNE) 08:39:53 29.354 - 29.394 USB, Beacon 29.352 USB
STRAND 1 30 Sep 08:40:16 08:41:53 11° 270° (W) 08:43:31 ?
JAS-2 30 Sep 08:51:04 08:54:42 16° 300° (WNW) 08:58:32 435.800 - 435.900 CW/SSB, 435.910 FM
HO-68 30 Sep 09:21:11 09:27:37 34° 97° (E) 09:34:01 435.675 MHz FM
Sapphire 30 Sep 09:30:24 09:35:21 39° 111° (ESE) 09:40:21 437.095 MHz 1200 baud AX-25 AFSK
UKube-1 30 Sep 09:30:31 09:32:21 12° 92° (E) 09:34:10 145.840 MHz, 145.915 MHz
PCSat 30 Sep 09:55:36 10:00:58 71° 115° (ESE) 10:06:23 145.825 MHz
ZACube-1 30 Sep 10:08:59 10:10:21 11° 89° (E) 10:11:41 437.345 MHz
Oscar 11 30 Sep 10:36:02 10:40:18 56° 100° (E) 10:44:31 145.825 FM, Beacon 2401.500 USB
RS-15 30 Sep 10:38:46 10:49:09 43° 44° (NE) 10:59:52 29.354 - 29.394 USB, Beacon 29.352 USB
FUNcube-1 30 Sep 10:57:48 11:02:06 40° 98° (E) 11:06:16 145.950 - 145.970 MHz USB
UKube-1 30 Sep 11:04:35 11:08:52 55° 287° (WNW) 11:13:07 145.840 MHz, 145.915 MHz
HO-68 30 Sep 11:08:39 11:15:23 45° 294° (WNW) 11:22:06 435.675 MHz FM
Sapphire 30 Sep 11:14:07 11:18:50 30° 308° (NW) 11:23:36 437.095 MHz 1200 baud AX-25 AFSK
PCSat 30 Sep 11:41:10 11:44:56 19° 314° (NW) 11:48:43 145.825 MHz
ZACube-1 30 Sep 11:42:39 11:47:12 65° 285° (WNW) 11:51:36 437.345 MHz
JAS-1B 30 Sep 12:11:47 12:12:41 10° 56° (ENE) 12:13:35 435.800 - 435.900 CW/SSB
Oscar 11 30 Sep 12:13:57 12:15:59 13° 296° (WNW) 12:18:00 145.825 FM, Beacon 2401.500 USB
Oscar 19 30 Sep 12:28:56 12:32:00 16° 62° (ENE) 12:35:04 437.125 CW, 437.150 USB
FUNcube-1 30 Sep 12:34:56 12:38:09 19° 294° (WNW) 12:41:20 145.950 - 145.970 MHz USB
RS-15 30 Sep 12:51:07 13:02:00 61° 247° (WSW) 13:13:22 29.354 - 29.394 USB, Beacon 29.352 USB
Oscar 16 30 Sep 13:07:50 13:12:34 37° 69° (ENE) 13:17:20 437.025 USB, Beacon 2401.1428
AO-27 30 Sep 13:16:23 13:19:59 19° 63° (ENE) 13:23:35 436.795 MHz FM
AO-Echo 30 Sep 13:25:06 13:28:47 24° 67° (ENE) 13:32:31 ?
Gurwin Techsat 1B 30 Sep 13:37:26 13:40:18 15° 61° (ENE) 13:43:11 435.225 FM
Saudisat 1A 30 Sep 13:45:45 13:49:17 24° 112° (ESE) 13:52:50 436.775 MHz
JAS-1B 30 Sep 13:54:43 14:02:25 66° 73° (ENE) 14:08:52 435.800 - 435.900 CW/SSB
TMSAT-1 30 Sep 14:05:35 14:09:19 20° 64° (ENE) 14:13:04 436.925 FM
Oscar 19 30 Sep 14:05:38 14:10:47 64° 258° (WSW) 14:15:57 437.125 CW, 437.150 USB
ITAMSAT 1 30 Sep 14:15:38 14:20:45 67° 74° (ENE) 14:25:54 435.822 SSB
Uribyol 2 30 Sep 14:16:40 14:21:49 74° 74° (ENE) 14:27:01 436.500 FM
Oscar 16 30 Sep 14:47:44 14:51:59 25° 265° (W) 14:56:15 437.025 USB, Beacon 2401.1428
AO-27 30 Sep 14:54:03 14:59:04 52° 260° (W) 15:04:09 436.795 MHz FM
AO-7 30 Sep 14:56:11 15:02:42 27° 56° (NE) 15:09:13 29.400 - 29.500 MHz
AO-Echo 30 Sep 15:03:10 15:07:24 33° 263° (W) 15:11:39 ?
RS-15 30 Sep 15:10:36 15:12:01 10° 265° (W) 15:13:26 29.354 - 29.394 USB, Beacon 29.352 USB
Gurwin Techsat 1B 30 Sep 15:14:21 15:19:38 72° 258° (WSW) 15:24:57 435.225 FM
Saudisat 1A 30 Sep 15:24:40 15:28:41 34° 309° (NW) 15:32:44 436.775 MHz
TMSAT-1 30 Sep 15:43:41 15:48:49 52° 260° (W) 15:54:00 436.925 FM
JAS-1B 30 Sep 15:47:42 15:53:15 21° 265° (W) 15:58:14 435.800 - 435.900 CW/SSB
KITSAT 1 30 Sep 15:54:23 15:59:13 17° 101° (E) 16:04:02 435.175 FM
MaSat-1 30 Sep 15:57:58 16:01:15 57° 249° (WSW) 16:04:05 437.345 MHz
ITAMSAT 1 30 Sep 15:58:10 16:00:42 14° 269° (W) 16:03:15 435.822 SSB
Uribyol 2 30 Sep 15:59:43 16:01:49 12° 270° (W) 16:03:56 436.500 FM
Uosat F 30 Sep 16:22:56 16:27:51 64° 73° (ENE) 16:32:49 435.120 FM
AO-7 30 Sep 16:46:31 16:54:46 71° 255° (WSW) 17:03:04 29.400 - 29.500 MHz
JAS-2 30 Sep 17:16:47 17:21:22 33° 67° (ENE) 17:26:09 435.800 - 435.900 CW/SSB, 435.910 FM
Hamsat 30 Sep 17:38:38 17:42:40 39° 72° (ENE) 17:46:41 145.90 MHz
KITSAT 1 30 Sep 17:45:24 17:53:29 90° 298° (WNW) 18:01:38 435.175 FM
Uosat F 30 Sep 18:04:37 18:07:04 14° 269° (W) 18:09:31 435.120 FM
OPAL 30 Sep 18:08:08 18:13:16 84° 106° (ESE) 18:18:17 ?
Sapphire 30 Sep 18:19:13 18:23:51 28° 51° (NE) 18:28:28 437.095 MHz 1200 baud AX-25 AFSK
SO-50 30 Sep 18:34:51 18:37:22 15° 108° (ESE) 18:39:55 436.795 FM
SO-67 30 Sep 18:41:25 18:44:06 22° 71° (ENE) 18:46:47 435.3500 MHz FM
PCSat 30 Sep 18:44:33 18:49:47 46° 56° (ENE) 18:54:58 145.825 MHz
AO-7 30 Sep 18:46:28 18:48:53 11° 272° (W) 18:51:17 29.400 - 29.500 MHz
JAS-2 30 Sep 19:02:16 19:06:34 26° 266° (W) 19:11:01 435.800 - 435.900 CW/SSB, 435.910 FM
STRAND 1 30 Sep 19:09:06 19:13:30 28° 96° (E) 19:17:51 ?
Hamsat 30 Sep 19:15:54 19:18:45 17° 267° (W) 19:21:36 145.90 MHz
KITSAT 1 30 Sep 19:43:43 19:49:59 24° 321° (NW) 19:56:17 435.175 FM
OPAL 30 Sep 19:49:21 19:51:24 12° 303° (WNW) 19:53:26 ?
HO-68 30 Sep 19:49:49 19:55:19 25° 59° (ENE) 20:00:49 435.675 MHz FM
Sapphire 30 Sep 20:02:18 20:07:25 43° 249° (WSW) 20:12:30 437.095 MHz 1200 baud AX-25 AFSK
PANSAT 30 Sep 20:03:27 20:04:15 11° 166° (SSE) 20:05:03 not established
SO-50 30 Sep 20:13:01 20:17:25 55° 305° (NW) 20:21:57 436.795 FM
SO-67 30 Sep 20:14:32 20:17:02 19° 266° (W) 20:19:33 435.3500 MHz FM
UKube-1 30 Sep 20:26:41 20:27:36 11° 61° (ENE) 20:28:32 145.840 MHz, 145.915 MHz
PCSat 30 Sep 20:28:38 20:32:52 24° 253° (WSW) 20:37:05 145.825 MHz
UOSAT-12 30 Sep 20:43:59 20:47:51 27° 112° (ESE) 20:51:47 437.025 FM, 437.400 FM
STRAND 1 30 Sep 20:48:04 20:52:40 34° 292° (WNW) 20:57:16 ?
Oscar 11 30 Sep 21:30:07 21:34:10 39° 72° (ENE) 21:38:14 145.825 FM, Beacon 2401.500 USB
ISS 30 Sep 21:30:38 21:32:48 16° 130° (SE) 21:34:59 145.800 FM
HO-68 30 Sep 21:35:22 21:42:25 65° 257° (WSW) 21:49:33 435.675 MHz FM
PANSAT 30 Sep 21:41:19 21:43:42 16° 178° (S) 21:46:04 not established
FUNcube-1 30 Sep 21:53:17 21:57:12 30° 69° (ENE) 22:01:12 145.950 - 145.970 MHz USB
UKube-1 30 Sep 21:58:52 22:03:11 72° 258° (WSW) 22:07:32 145.840 MHz, 145.915 MHz
Saudisat 1A 30 Sep 22:13:06 22:16:12 18° 45° (NE) 22:19:17 436.775 MHz
UOSAT-12 30 Sep 22:23:38 22:27:52 34° 310° (NW) 22:32:11 437.025 FM, 437.400 FM
ZACube-1 30 Sep 22:37:39 22:42:11 90° 76° (ENE) 22:46:50 437.345 MHz
ISS 30 Sep 23:05:58 23:09:13 51° 326° (NW) 23:12:29 145.800 FM
Oscar 11 30 Sep 23:07:34 23:10:29 18° 267° (W) 23:13:25 145.825 FM, Beacon 2401.500 USB
PANSAT 30 Sep 23:21:29 23:23:10 13° 191° (S) 23:24:51 not established
FUNcube-1 30 Sep 23:29:48 23:33:33 25° 265° (W) 23:37:22 145.950 - 145.970 MHz USB
KITSAT 1 30 Sep 23:46:12 23:49:17 12° 22° (NNE) 23:52:21 435.175 FM
Saudisat 1A 30 Sep 23:51:46 23:56:05 54° 242° (WSW) 00:00:23 436.775 MHz
Oscar 10/S400 01 Oct 00:07:37 18:51:22 61° 169° (S) 01:55:26 145.825 - 145.975 CW/USB, Beacon 145.810 USB
AO-40 01 Oct 00:36:56 01:43:18 15° 236° (SW) 03:24:19 Beacon 2401.320
ISS 01 Oct 00:44:41 00:46:31 14° 345° (NNW) 00:48:22 145.800 FM
RS-15 01 Oct 01:04:34 01:12:33 24° 102° (ESE) 01:20:24 29.354 - 29.394 USB, Beacon 29.352 USB
Oscar 16 01 Oct 01:22:03 01:24:35 14° 90° (E) 01:27:06 437.025 USB, Beacon 2401.1428
KITSAT 1 01 Oct 01:39:55 01:47:24 39° 49° (NE) 01:54:49 435.175 FM
JAS-1B 01 Oct 01:42:17 01:45:00 13° 92° (E) 01:47:48 435.800 - 435.900 CW/SSB
Oscar 19 01 Oct 02:18:17 02:23:16 48° 100° (E) 02:28:12 437.125 CW, 437.150 USB
ISS 01 Oct 02:23:31 02:24:23 11° 5° (N) 02:25:15 145.800 FM
ITAMSAT 1 01 Oct 02:30:01 02:34:21 26° 95° (E) 02:38:39 435.822 SSB
Uribyol 2 01 Oct 02:30:51 02:35:20 28° 96° (E) 02:39:46 436.500 FM
Oscar 16 01 Oct 02:59:16 03:04:23 66° 286° (WNW) 03:09:28 437.025 USB, Beacon 2401.1428
SO-50 01 Oct 03:06:01 03:08:55 16° 41° (NE) 03:11:51 436.795 FM
AO-27 01 Oct 03:07:48 03:13:00 61° 101° (ESE) 03:18:09 436.795 MHz FM
AO-Echo 01 Oct 03:10:05 03:15:08 80° 103° (ESE) 03:20:19 ?
RS-15 01 Oct 03:12:26 03:23:31 84° 302° (WNW) 03:34:30 29.354 - 29.394 USB, Beacon 29.352 USB
JAS-1B 01 Oct 03:30:31 03:36:11 72° 286° (WNW) 03:42:20 435.800 - 435.900 CW/SSB
Gurwin Techsat 1B 01 Oct 03:31:34 03:36:44 49° 100° (E) 03:41:52 435.225 FM
KITSAT 1 01 Oct 03:35:16 03:42:57 50° 249° (WSW) 03:50:37 435.175 FM
OPAL 01 Oct 03:45:31 03:48:53 18° 60° (ENE) 03:52:15 ?
Oscar 19 01 Oct 03:58:33 04:02:13 20° 296° (WNW) 04:05:53 437.125 CW, 437.150 USB
ISS 01 Oct 03:59:16 04:02:02 23° 25° (NNE) 04:04:46 145.800 FM
TMSAT-1 01 Oct 04:00:15 04:05:34 68° 102° (ESE) 04:10:50 436.925 FM
ITAMSAT 1 01 Oct 04:09:06 04:13:53 37° 291° (WNW) 04:18:39 435.822 SSB
Uribyol 2 01 Oct 04:10:06 04:14:47 34° 292° (WNW) 04:19:27 436.500 FM
Uosat F 01 Oct 04:32:23 04:36:10 21° 94° (E) 04:39:56 435.120 FM
SO-50 01 Oct 04:45:14 04:50:05 82° 240° (WSW) 04:54:57 436.795 FM
AO-27 01 Oct 04:48:42 04:51:59 17° 298° (WNW) 04:55:16 436.795 MHz FM
AO-7 01 Oct 04:49:15 04:57:03 43° 100° (E) 05:04:47 29.400 - 29.500 MHz
AO-Echo 01 Oct 04:51:10 04:53:16 13° 298° (WNW) 04:55:23 ?
Gurwin Techsat 1B 01 Oct 05:12:27 05:16:19 21° 296° (WNW) 05:20:11 435.225 FM
UOSAT-12 01 Oct 05:14:13 05:17:54 22° 45° (NE) 05:21:31 437.025 FM, 437.400 FM
OPAL 01 Oct 05:22:06 05:27:14 61° 257° (WSW) 05:32:25 ?
RS-15 01 Oct 05:28:43 05:37:42 28° 328° (NNW) 05:46:46 29.354 - 29.394 USB, Beacon 29.352 USB
ISS 01 Oct 05:35:39 05:38:52 48° 223° (SW) 05:42:05 145.800 FM
MaSat-1 01 Oct 05:39:11 05:43:58 57° 111° (ESE) 05:48:34 437.345 MHz
TMSAT-1 01 Oct 05:41:50 05:44:53 16° 298° (WNW) 05:47:56 436.925 FM
